Terug naar catalogus

CZ-11 DEB

ActiefSSO
NORAD 41846·DEBRIS·🇨🇳 China

Gelanceerd Nov 9, 2016 vanaf Jiuquan Satellite Launch Center

Loading…

Volgende Passages (komende 24 uur)

TLE

VersSource: Space-Track

Epoch: Sep 14, 2026, 12:00 UTC

1 41846U 16066F   26257.50054524  .00003667  00000-0  45900-3 0  9992
2 41846  98.4216 348.5996 0304514 188.1305 171.4896 14.55266212518039

Volg CZ-11 DEB in realtime met AllMySat

Download on the App Store